• In Uzbekistan
  • List of Countries
  • For 7 days
  • Water Temperature
  • Satellite Maps
  • Weather Map
  • Weather Widgets
  • user-avatar
    Login

    Hourly Weather Zawadka

    Today, 24 September, Monday

    Time Temperature Precipitation Wind Pressure Humidity
    00:00 +14°C° 0.2 mm 10 mps 727 mmHg 66%
    01:00 +15°C° 0 mm 5 mps 726 mmHg 75%
    02:00 +14°C° 0.9 mm 6 mps 727 mmHg 78%
    03:00 +12°C° 0.9 mm 8 mps 727 mmHg 81%
    04:00 +11°C° 0.9 mm 9 mps 728 mmHg 85%
    05:00 +10°C° 0.3 mm 9 mps 730 mmHg 84%
    06:00 +9°C° 0.3 mm 8 mps 731 mmHg 84%
    07:00 +7°C° 0.3 mm 8 mps 733 mmHg 84%
    08:00 +7°C° 0.3 mm 8 mps 734 mmHg 82%
    09:00 +7°C° 0.3 mm 8 mps 735 mmHg 80%
    10:00 +7°C° 0.3 mm 8 mps 736 mmHg 78%
    11:00 +8°C° 0.1 mm 9 mps 736 mmHg 73%
    12:00 +8°C° 0.1 mm 9 mps 737 mmHg 68%
    13:00 +10°C° 0.1 mm 9 mps 737 mmHg 63%
    14:00 +10°C° 0.1 mm 9 mps 738 mmHg 61%
    15:00 +9°C° 0.1 mm 8 mps 738 mmHg 60%
    16:00 +9°C° 0.1 mm 8 mps 738 mmHg 58%
    17:00 +8°C° 0 mm 7 mps 739 mmHg 62%
    18:00 +7°C° 0 mm 6 mps 739 mmHg 65%
    19:00 +6°C° 0 mm 5 mps 739 mmHg 69%
    20:00 +6°C° 0.1 mm 5 mps 740 mmHg 70%
    21:00 +5°C° 0.1 mm 6 mps 740 mmHg 72%
    22:00 +5°C° 0.1 mm 6 mps 741 mmHg 74%
    23:00 +5°C° 0.2 mm 6 mps 741 mmHg 76%

    Tomorrow, 25 September, Tuesday

    Time Temperature Precipitation Wind Pressure Humidity
    00:00 +4°C° 0.2 mm 6 mps 741 mmHg 78%
    01:00 +5°C° 0.2 mm 5 mps 742 mmHg 81%
    02:00 +5°C° 0 mm 5 mps 742 mmHg 82%
    03:00 +3°C° 0 mm 5 mps 743 mmHg 82%
    04:00 +3°C° 0 mm 5 mps 743 mmHg 83%
    05:00 +3°C° 0 mm 5 mps 744 mmHg 82%
    06:00 +3°C° 0 mm 6 mps 744 mmHg 81%
    07:00 +4°C° 0 mm 6 mps 745 mmHg 80%
    08:00 +5°C° 0 mm 6 mps 746 mmHg 73%
    09:00 +8°C° 0 mm 6 mps 746 mmHg 66%
    10:00 +9°C° 0 mm 7 mps 746 mmHg 58%
    11:00 +10°C° 0.1 mm 7 mps 747 mmHg 54%
    12:00 +10°C° 0.1 mm 7 mps 747 mmHg 51%
    13:00 +11°C° 0.1 mm 7 mps 747 mmHg 47%
    14:00 +10°C° 0.1 mm 6 mps 747 mmHg 49%
    15:00 +10°C° 0.1 mm 6 mps 747 mmHg 52%
    16:00 +9°C° 0.1 mm 5 mps 748 mmHg 54%
    17:00 +8°C° 0 mm 4 mps 748 mmHg 57%
    18:00 +8°C° 0 mm 3 mps 749 mmHg 60%
    19:00 +5°C° 0 mm 3 mps 749 mmHg 64%
    20:00 +5°C° 0 mm 3 mps 750 mmHg 66%
    21:00 +5°C° 0 mm 2 mps 750 mmHg 69%
    22:00 +5°C° 0 mm 2 mps 751 mmHg 71%
    23:00 +4°C° 0 mm 2 mps 751 mmHg 74%

    Day after tomorrow, 26 September, Wednesday

    Time Temperature Precipitation Wind Pressure Humidity
    00:00 +4°C° 0 mm 2 mps 751 mmHg 76%
    01:00 +3°C° 0 mm 2 mps 751 mmHg 79%
    02:00 +4°C° 0 mm 1 mps 751 mmHg 80%
    03:00 +3°C° 0 mm 1 mps 752 mmHg 81%
    04:00 +3°C° 0 mm 1 mps 752 mmHg 82%
    05:00 +4°C° 0 mm 1 mps 752 mmHg 79%
    06:00 +5°C° 0 mm 1 mps 752 mmHg 76%
    07:00 +5°C° 0 mm 1 mps 752 mmHg 73%
    08:00 +7°C° 0 mm 2 mps 752 mmHg 65%
    09:00 +9°C° 0 mm 2 mps 752 mmHg 57%
    10:00 +12°C° 0 mm 2 mps 752 mmHg 49%
    11:00 +13°C° 0 mm 2 mps 751 mmHg 46%
    12:00 +13°C° 0 mm 2 mps 751 mmHg 43%
    13:00 +14°C° 0 mm 2 mps 750 mmHg 40%
    14:00 +14°C° 0 mm 2 mps 750 mmHg 43%
    15:00 +14°C° 0 mm 2 mps 749 mmHg 46%
    16:00 +14°C° 0 mm 2 mps 749 mmHg 49%
    17:00 +12°C° 0 mm 2 mps 748 mmHg 50%
    18:00 +10°C° 0 mm 2 mps 748 mmHg 52%
    19:00 +8°C° 0 mm 2 mps 748 mmHg 54%
    20:00 +9°C° 0 mm 2 mps 748 mmHg 54%
    21:00 +9°C° 0 mm 3 mps 748 mmHg 54%
    22:00 +9°C° 0 mm 3 mps 748 mmHg 54%
    23:00 +9°C° 0 mm 3 mps 748 mmHg 54%

    27 September, Thursday

    Time Temperature Precipitation Wind Pressure Humidity
    00:00 +8°C° 0 mm 4 mps 747 mmHg 54%
    01:00 +8°C° 0 mm 4 mps 747 mmHg 54%
    02:00 +8°C° 0 mm 4 mps 747 mmHg 54%
    03:00 +7°C° 0 mm 4 mps 746 mmHg 54%
    04:00 +7°C° 0 mm 4 mps 746 mmHg 55%
    05:00 +7°C° 0 mm 4 mps 746 mmHg 54%
    06:00 +8°C° 0 mm 4 mps 746 mmHg 53%
    07:00 +8°C° 0 mm 5 mps 746 mmHg 52%
    08:00 +10°C° 0 mm 5 mps 746 mmHg 50%
    09:00 +12°C° 0 mm 5 mps 746 mmHg 48%
    10:00 +14°C° 0 mm 5 mps 746 mmHg 47%
    11:00 +16°C° 0 mm 5 mps 745 mmHg 48%
    12:00 +17°C° 0 mm 6 mps 745 mmHg 49%
    13:00 +19°C° 0 mm 6 mps 745 mmHg 50%
    14:00 +19°C° 0 mm 5 mps 745 mmHg 53%
    15:00 +19°C° 0 mm 4 mps 744 mmHg 56%
    16:00 +19°C° 0 mm 4 mps 744 mmHg 60%
    17:00 +17°C° 0 mm 4 mps 744 mmHg 64%
    18:00 +14°C° 0 mm 3 mps 744 mmHg 68%
    19:00 +13°C° 0 mm 3 mps 744 mmHg 71%
    20:00 +13°C° 0 mm 3 mps 744 mmHg 71%
    21:00 +13°C° 0 mm 3 mps 744 mmHg 71%
    22:00 +13°C° 0 mm 3 mps 744 mmHg 71%
    23:00 +13°C° 0 mm 2 mps 744 mmHg 72%

    28 September, Friday

    Time Temperature Precipitation Wind Pressure Humidity
    00:00 +13°C° 0 mm 2 mps 744 mmHg 73%
    01:00 +13°C° 0 mm 2 mps 743 mmHg 74%
    02:00 +12°C° 0 mm 2 mps 743 mmHg 75%
    03:00 +12°C° 0 mm 2 mps 742 mmHg 76%
    04:00 +10°C° 0 mm 2 mps 742 mmHg 77%
    05:00 +11°C° 0 mm 3 mps 741 mmHg 75%
    06:00 +11°C° 0 mm 3 mps 741 mmHg 72%
    07:00 +12°C° 0 mm 3 mps 741 mmHg 70%
    08:00 +14°C° 0 mm 4 mps 741 mmHg 64%
    09:00 +17°C° 0 mm 4 mps 740 mmHg 59%
    10:00 +19°C° 0 mm 4 mps 740 mmHg 53%
    11:00 +20°C° 0 mm 5 mps 739 mmHg 51%
    12:00 +21°C° 0 mm 5 mps 739 mmHg 49%
    13:00 +22°C° 0 mm 5 mps 738 mmHg 47%
    14:00 +21°C° 0 mm 4 mps 738 mmHg 49%
    15:00 +21°C° 0 mm 4 mps 737 mmHg 51%
    16:00 +20°C° 0 mm 4 mps 737 mmHg 53%
    17:00 +19°C° 0 mm 4 mps 737 mmHg 54%
    18:00 +18°C° 0 mm 3 mps 737 mmHg 54%
    19:00 +17°C° 0 mm 3 mps 737 mmHg 55%
    20:00 +16°C° 0 mm 3 mps 737 mmHg 59%
    21:00 +14°C° 0 mm 3 mps 737 mmHg 63%
    22:00 +14°C° 0 mm 2 mps 737 mmHg 67%
    23:00 +13°C° 0 mm 2 mps 737 mmHg 73%

    29 September, Saturday

    Time Temperature Precipitation Wind Pressure Humidity
    00:00 +12°C° 0 mm 2 mps 737 mmHg 78%
    01:00 +12°C° 0 mm 2 mps 737 mmHg 84%
    02:00 +10°C° 0.2 mm 2 mps 737 mmHg 86%
    03:00 +10°C° 0.2 mm 3 mps 737 mmHg 88%
    04:00 +10°C° 0.2 mm 3 mps 737 mmHg 91%
    05:00 +10°C° 1 mm 3 mps 738 mmHg 90%
    06:00 +10°C° 1 mm 4 mps 738 mmHg 90%
    07:00 +8°C° 1 mm 4 mps 739 mmHg 89%
    08:00 +9°C° 0.4 mm 5 mps 739 mmHg 83%
    09:00 +10°C° 0.4 mm 5 mps 740 mmHg 77%
    10:00 +12°C° 0.4 mm 5 mps 741 mmHg 71%
    11:00 +11°C° 0.1 mm 6 mps 741 mmHg 66%
    12:00 +13°C° 0.1 mm 6 mps 741 mmHg 61%
    13:00 +13°C° 0.1 mm 6 mps 741 mmHg 56%
    14:00 +13°C° 0 mm 6 mps 742 mmHg 56%
    15:00 +12°C° 0 mm 5 mps 742 mmHg 56%
    16:00 +12°C° 0 mm 5 mps 742 mmHg 56%
    17:00 +9°C° 0 mm 5 mps 743 mmHg 58%
    18:00 +8°C° 0 mm 4 mps 744 mmHg 59%
    19:00 +8°C° 0 mm 3 mps 744 mmHg 61%
    20:00 +7°C° 0 mm 3 mps 744 mmHg 62%
    21:00 +5°C° 0 mm 3 mps 745 mmHg 64%
    22:00 +5°C° 0 mm 3 mps 745 mmHg 65%
    23:00 +4°C° 0 mm 3 mps 745 mmHg 68%
    Show more